Tracking 27122 objects as of 24-Mar-2023
HD Live streaming from Space Station
objects crossing your sky now

COSMOS 1275 DEB

Track COSMOS 1275 DEB now!
10-day predictions


NORAD ID: 12767
Int'l Code: 1981-053DL
Perigee: 843.3 km
Apogee: 905.6 km
Inclination: 83.0 °
Period: 102.3 minutes
Semi major axis: 7245 km
RCS: 0.055 m2 (small)
Launch date: June 4, 1981
Source: Commonwealth of Independent States (former USSR) (CIS)
Launch site: PLESETSK MISSILE AND SPACE COMPLEX (PKMTR)

Note: This is SATELLITE DEBRIS
Your satellite tracking list
Your tracking list is empty




NASA's NSSDC Master Catalog

Two Line Element Set (TLE):
1 12767U 81053DL  23082.68950466  .00001358  00000-0  78740-3 0  9995
2 12767  82.9583 322.4616 0042953  14.3613  39.2976 14.07686607124946
Source of the keplerian elements: AFSPC